Orbital Elements at Epoch 2459200.5 (2020-Dec-17.0) TDB
Reference: JPL 21 (heliocentric ecliptic J2000)
Element | Value | Uncertainty (1-sigma) | Units |
e | .1449935840811878 | 5.0788e-08 | |
a | 2.431691743116302 | 1.1923e-08 | au |
q | 2.079112041901238 | 1.2318e-07 | au |
i | 3.215644044668284 | 5.0088e-06 | deg |
node | 79.24440441234619 | 9.6662e-05 | deg |
peri | 154.3665827127888 | 9.8224e-05 | deg |
M | 251.5415732030245 | 1.906e-05 | deg |
tp | 2459617.774655197383 (2022-Feb-07.27465520) | 7.4733e-05 | TDB |
period | 1385.036463346958 3.79 | 1.0187e-05 2.789e-08 | d yr |
n | .2599209548101394 | 1.9117e-09 | deg/d |
Q | 2.784271444331366 | 1.3652e-08 | au |
|
| | Orbit Determination Parameters
Additional Information
|